CEB987 VHHH-RPLL

Flight info

Callsign CEB987
Flight time 1h 44m
Altitude 38000
Route DALOL DCT NOMAN A461 CAB CAB7P
Aircraft A20N/M-SDE2E3FGHIRWXY/LB1

Departure

Time 2026-05-04 06:20
Airport Hong Kong International Airport (VHHH)

Arrival

Time 2026-05-04 08:04
Airport Ninoy Aquino International Airport (RPLL)
Time Latitude Longitude Altitude Speed Heading
2026-05-04 06:03 22.31043 113.91681 35 ft 0 kts 71°
2026-05-04 06:08 22.31040 113.91672 37 ft 2 kts 69°
2026-05-04 06:08 22.31034 113.91655 37 ft 2 kts 68°
2026-05-04 06:09 22.31025 113.91633 34 ft 2 kts 65°
2026-05-04 06:09 22.31025 113.91632 34 ft 0 kts 64°
2026-05-04 06:11 22.30971 113.91584 36 ft 0 kts 342°
2026-05-04 06:13 22.31163 113.91512 37 ft 17 kts 341°
2026-05-04 06:14 22.31274 113.90921 37 ft 23 kts 251°
2026-05-04 06:14 22.31221 113.90739 36 ft 27 kts 250°
2026-05-04 06:15 22.31148 113.90535 36 ft 31 kts 251°
2026-05-04 06:15 22.31077 113.90310 35 ft 24 kts 251°
2026-05-04 06:15 22.31050 113.90229 35 ft 13 kts 250°
2026-05-04 06:15 22.31015 113.90120 36 ft 18 kts 250°
2026-05-04 06:16 22.30968 113.89970 36 ft 23 kts 252°
2026-05-04 06:16 22.30928 113.89848 36 ft 10 kts 250°
2026-05-04 06:16 22.30956 113.89803 37 ft 9 kts 342°
2026-05-04 06:16 22.31033 113.89774 36 ft 15 kts 340°
2026-05-04 06:17 22.31090 113.89782 36 ft 8 kts 64°
2026-05-04 06:17 22.31112 113.89852 36 ft 0 kts 71°
2026-05-04 06:18 22.31112 113.89853 36 ft 2 kts 71°
2026-05-04 06:20 22.32309 113.97379 3472 ft 216 kts 122°
2026-05-04 06:20 22.31404 113.98785 3827 ft 241 kts 127°
2026-05-04 06:21 22.26908 114.05397 7605 ft 293 kts 128°
2026-05-04 06:21 22.25726 114.07189 8827 ft 300 kts 129°
2026-05-04 06:22 22.24500 114.09053 9988 ft 309 kts 129°
2026-05-04 06:22 22.23224 114.10988 10847 ft 328 kts 129°
2026-05-04 06:25 22.03145 114.41356 21295 ft 426 kts 130°
2026-05-04 06:25 22.01410 114.43970 22031 ft 430 kts 130°
2026-05-04 06:26 21.99651 114.46620 22745 ft 435 kts 130°
2026-05-04 06:26 21.97877 114.49291 23466 ft 440 kts 130°
2026-05-04 06:26 21.96084 114.51991 24054 ft 445 kts 130°
2026-05-04 06:26 21.94292 114.54688 24630 ft 449 kts 130°
2026-05-04 06:27 21.86851 114.65873 26801 ft 467 kts 130°
2026-05-04 06:28 21.84969 114.68697 27309 ft 471 kts 130°
2026-05-04 06:28 21.83049 114.71577 27817 ft 475 kts 130°
2026-05-04 06:28 21.81110 114.74483 28294 ft 480 kts 130°
2026-05-04 06:28 21.79154 114.77414 28778 ft 484 kts 130°
2026-05-04 06:29 21.77185 114.80363 29252 ft 487 kts 130°
2026-05-04 06:29 21.75181 114.83331 29708 ft 490 kts 132°
2026-05-04 06:29 21.72954 114.86104 30155 ft 489 kts 139°
2026-05-04 06:29 21.70526 114.88680 30560 ft 491 kts 140°
2026-05-04 06:30 21.68113 114.91235 30978 ft 495 kts 140°
2026-05-04 06:30 21.65654 114.93848 31455 ft 496 kts 140°
2026-05-04 06:30 21.63203 114.96457 32006 ft 496 kts 140°
2026-05-04 06:30 21.60749 114.99069 32587 ft 495 kts 140°
2026-05-04 06:31 21.58302 115.01670 33153 ft 494 kts 140°
2026-05-04 06:31 21.55846 115.04279 33718 ft 494 kts 140°
2026-05-04 06:31 21.53403 115.06872 34224 ft 493 kts 140°
2026-05-04 06:31 21.50994 115.09426 34698 ft 493 kts 140°
2026-05-04 06:32 21.48553 115.12013 35170 ft 492 kts 140°
2026-05-04 06:33 21.31580 115.29966 37992 ft 485 kts 140°
2026-05-04 06:34 21.26818 115.34994 38000 ft 483 kts 140°
2026-05-04 06:34 21.22023 115.40050 37994 ft 482 kts 140°
2026-05-04 06:36 21.02910 115.60160 37991 ft 480 kts 140°
2026-05-04 06:37 20.98164 115.65141 37993 ft 480 kts 140°
2026-05-04 06:37 20.93404 115.70133 37991 ft 479 kts 140°
2026-05-04 06:38 20.88638 115.75126 37985 ft 478 kts 140°
2026-05-04 06:40 20.69653 115.94970 37980 ft 477 kts 140°
2026-05-04 06:40 20.64895 115.99932 37979 ft 477 kts 140°
2026-05-04 06:41 20.60143 116.04882 37986 ft 478 kts 140°
2026-05-04 06:41 20.55698 116.09509 37988 ft 478 kts 140°
2026-05-04 06:42 20.50925 116.14473 37992 ft 478 kts 140°
2026-05-04 06:44 20.31872 116.34245 37987 ft 478 kts 140°
2026-05-04 06:44 20.27133 116.39151 37987 ft 477 kts 140°
2026-05-04 06:45 20.22369 116.44079 37981 ft 476 kts 140°
2026-05-04 06:45 20.17605 116.49003 37977 ft 476 kts 140°
2026-05-04 06:46 20.12876 116.53885 37971 ft 475 kts 140°
2026-05-04 06:46 20.08120 116.58791 37973 ft 475 kts 140°
2026-05-04 06:48 19.89720 116.79067 37988 ft 478 kts 135°
2026-05-04 06:50 19.71787 116.99850 37972 ft 476 kts 136°
2026-05-04 06:51 19.67303 117.05029 37978 ft 476 kts 136°
2026-05-04 06:51 19.62850 117.10168 37963 ft 475 kts 136°
2026-05-04 06:52 19.58376 117.15326 37964 ft 474 kts 136°
2026-05-04 06:52 19.53900 117.20482 37951 ft 473 kts 136°
2026-05-04 06:53 19.49471 117.25580 37957 ft 473 kts 136°
2026-05-04 06:53 19.45014 117.30704 37945 ft 472 kts 136°
2026-05-04 06:54 19.40558 117.35824 37939 ft 472 kts 136°
2026-05-04 06:54 19.36099 117.40943 37944 ft 472 kts 136°
2026-05-04 06:55 19.31643 117.46053 37944 ft 472 kts 135°
2026-05-04 06:55 19.27201 117.51143 37935 ft 472 kts 135°
2026-05-04 06:57 19.10104 117.70695 37947 ft 473 kts 135°
2026-05-04 06:58 19.05624 117.75807 37950 ft 474 kts 135°
2026-05-04 06:58 19.01145 117.80915 37952 ft 474 kts 135°
2026-05-04 06:59 18.96676 117.86004 37957 ft 475 kts 135°
2026-05-04 06:59 18.92173 117.91130 37957 ft 475 kts 135°
2026-05-04 07:01 18.74200 118.11545 37939 ft 474 kts 135°
2026-05-04 07:02 18.69703 118.16643 37933 ft 473 kts 135°
2026-05-04 07:02 18.65214 118.21726 37939 ft 473 kts 135°
2026-05-04 07:03 18.60721 118.26809 37942 ft 473 kts 135°
2026-05-04 07:03 18.56254 118.31860 37934 ft 473 kts 135°
2026-05-04 07:04 18.51759 118.36939 37932 ft 473 kts 135°
2026-05-04 07:04 18.47257 118.42020 37921 ft 473 kts 135°
2026-05-04 07:05 18.42792 118.47056 37923 ft 472 kts 135°
2026-05-04 07:05 18.38288 118.52131 37921 ft 473 kts 135°
2026-05-04 07:06 18.31576 118.59687 37918 ft 473 kts 135°
2026-05-04 07:07 18.28539 118.63103 37924 ft 473 kts 135°
2026-05-04 07:09 18.10538 118.83311 37923 ft 473 kts 135°
2026-05-04 07:09 18.06045 118.88344 37917 ft 473 kts 135°
2026-05-04 07:10 18.01535 118.93394 37916 ft 473 kts 135°
2026-05-04 07:12 17.83526 119.13509 37909 ft 473 kts 135°
2026-05-04 07:12 17.79017 119.18537 37908 ft 473 kts 135°
2026-05-04 07:13 17.74732 119.23310 37907 ft 473 kts 135°
2026-05-04 07:13 17.70211 119.28341 37903 ft 473 kts 135°
2026-05-04 07:14 17.58918 119.40894 37905 ft 474 kts 135°
2026-05-04 07:15 17.54382 119.45929 37903 ft 474 kts 135°
2026-05-04 07:15 17.49848 119.50958 37901 ft 474 kts 135°
2026-05-04 07:16 17.45330 119.55967 37902 ft 473 kts 135°
2026-05-04 07:16 17.40833 119.60947 37895 ft 472 kts 135°
2026-05-04 07:17 17.36317 119.65944 37895 ft 472 kts 135°
2026-05-04 07:17 17.31805 119.70934 37883 ft 471 kts 135°
2026-05-04 07:18 17.27306 119.75907 37889 ft 471 kts 135°
2026-05-04 07:18 17.22818 119.80861 37886 ft 471 kts 135°
2026-05-04 07:19 17.18300 119.85844 37884 ft 470 kts 135°
2026-05-04 07:19 17.13789 119.90818 37884 ft 470 kts 135°
2026-05-04 07:20 17.09282 119.95782 37889 ft 471 kts 135°
2026-05-04 07:20 17.04794 120.00723 37892 ft 471 kts 135°
2026-05-04 07:22 16.87501 120.19727 37904 ft 471 kts 136°
2026-05-04 07:23 16.82952 120.24717 37900 ft 470 kts 136°
2026-05-04 07:23 16.78461 120.29639 37915 ft 471 kts 136°
2026-05-04 07:24 16.73782 120.34332 37903 ft 465 kts 144°
2026-05-04 07:24 16.71986 120.35702 38005 ft 459 kts 150°
2026-05-04 07:24 16.69313 120.37439 37999 ft 458 kts 152°
2026-05-04 07:26 16.47061 120.49664 37925 ft 459 kts 156°
2026-05-04 07:27 16.41413 120.52694 37922 ft 459 kts 156°
2026-05-04 07:27 16.35728 120.55743 37916 ft 459 kts 156°
2026-05-04 07:28 16.30051 120.58786 37898 ft 458 kts 156°
2026-05-04 07:28 16.24414 120.61806 37900 ft 456 kts 156°
2026-05-04 07:29 16.18762 120.64831 37892 ft 456 kts 156°
2026-05-04 07:29 16.13141 120.67838 37892 ft 455 kts 156°
2026-05-04 07:30 16.07487 120.70860 37894 ft 457 kts 156°
2026-05-04 07:30 16.01863 120.73867 37886 ft 456 kts 156°
2026-05-04 07:31 15.96208 120.76887 37882 ft 456 kts 156°
2026-05-04 07:33 15.73620 120.88927 37876 ft 456 kts 156°
2026-05-04 07:33 15.67960 120.91940 37875 ft 456 kts 156°
2026-05-04 07:34 15.62334 120.94933 37884 ft 456 kts 156°
2026-05-04 07:34 15.56685 120.97936 37886 ft 456 kts 156°
2026-05-04 07:35 15.50791 121.00210 37788 ft 449 kts 173°
2026-05-04 07:35 15.47707 121.00581 37525 ft 445 kts 182°
2026-05-04 07:35 15.44665 121.00438 37273 ft 442 kts 191°
2026-05-04 07:36 15.41667 120.99798 37019 ft 440 kts 199°
2026-05-04 07:36 15.38786 120.98727 36774 ft 440 kts 204°
2026-05-04 07:38 15.20017 120.91346 31579 ft 461 kts 202°
2026-05-04 07:38 15.16992 120.90160 30398 ft 466 kts 202°
2026-05-04 07:38 15.13955 120.88967 29423 ft 466 kts 201°
2026-05-04 07:38 15.10938 120.87785 28679 ft 457 kts 201°
2026-05-04 07:39 15.08000 120.86635 28148 ft 445 kts 201°
2026-05-04 07:39 15.05143 120.85516 27175 ft 445 kts 201°
2026-05-04 07:39 15.02252 120.84383 26352 ft 442 kts 201°
2026-05-04 07:39 14.99407 120.83270 25728 ft 434 kts 201°
2026-05-04 07:40 14.96574 120.82161 24985 ft 431 kts 201°
2026-05-04 07:40 14.93772 120.81065 24242 ft 428 kts 200°
2026-05-04 07:40 14.91018 120.79989 23486 ft 426 kts 200°
2026-05-04 07:40 14.88249 120.78910 22715 ft 422 kts 200°
2026-05-04 07:41 14.85510 120.77842 21977 ft 416 kts 200°
2026-05-04 07:41 14.82812 120.76791 21218 ft 412 kts 200°
2026-05-04 07:41 14.80175 120.75763 20475 ft 409 kts 200°
2026-05-04 07:41 14.77526 120.74731 19759 ft 404 kts 200°
2026-05-04 07:42 14.74885 120.73702 19046 ft 402 kts 200°
2026-05-04 07:42 14.72306 120.72697 18733 ft 387 kts 200°
2026-05-04 07:42 14.69873 120.71749 18576 ft 370 kts 200°
2026-05-04 07:42 14.67513 120.70831 18445 ft 354 kts 200°
2026-05-04 07:43 14.65287 120.69965 18325 ft 339 kts 200°
2026-05-04 07:43 14.63102 120.69206 18205 ft 324 kts 190°
2026-05-04 07:43 14.60888 120.69188 17886 ft 316 kts 167°
2026-05-04 07:43 14.58866 120.70013 17432 ft 312 kts 150°
2026-05-04 07:44 14.56987 120.71131 17012 ft 310 kts 148°
2026-05-04 07:44 14.55161 120.72257 16818 ft 300 kts 149°
2026-05-04 07:44 14.53226 120.72926 16707 ft 289 kts 173°
2026-05-04 07:44 14.51258 120.72696 16429 ft 287 kts 199°
2026-05-04 07:45 14.49590 120.71628 16037 ft 289 kts 224°
2026-05-04 07:45 14.48436 120.69936 15657 ft 289 kts 241°
2026-05-04 07:45 14.47543 120.68079 15293 ft 288 kts 244°
2026-05-04 07:45 14.46675 120.66212 14944 ft 287 kts 243°
2026-05-04 07:46 14.45769 120.64384 14592 ft 286 kts 241°
2026-05-04 07:46 14.44821 120.62585 14248 ft 284 kts 240°
2026-05-04 07:46 14.43858 120.60823 13929 ft 283 kts 239°
2026-05-04 07:46 14.42873 120.59050 13578 ft 282 kts 239°
2026-05-04 07:47 14.41894 120.57299 13207 ft 281 kts 239°
2026-05-04 07:47 14.40930 120.55577 12863 ft 280 kts 239°
2026-05-04 07:47 14.39960 120.53843 12497 ft 279 kts 239°
2026-05-04 07:49 14.31604 120.44264 10033 ft 262 kts 165°
2026-05-04 07:49 14.29972 120.44971 9700 ft 256 kts 144°
2026-05-04 07:49 14.28512 120.46008 9370 ft 253 kts 140°
2026-05-04 07:50 14.27081 120.47068 9040 ft 252 kts 141°
2026-05-04 07:50 14.25623 120.48069 8724 ft 250 kts 144°
2026-05-04 07:50 14.24213 120.49067 8438 ft 245 kts 132°
2026-05-04 07:50 14.23348 120.50503 8212 ft 233 kts 103°
2026-05-04 07:51 14.23290 120.52137 7905 ft 229 kts 75°
2026-05-04 07:51 14.23966 120.53623 7594 ft 228 kts 60°
2026-05-04 07:51 14.24771 120.55032 7318 ft 227 kts 60°
2026-05-04 07:51 14.25557 120.56418 7040 ft 227 kts 60°
2026-05-04 07:52 14.26347 120.57826 6765 ft 226 kts 60°
2026-05-04 07:52 14.27127 120.59224 6527 ft 223 kts 61°
2026-05-04 07:52 14.28005 120.60545 6228 ft 225 kts 50°
2026-05-04 07:52 14.29038 120.61755 5955 ft 223 kts 53°
2026-05-04 07:53 14.29910 120.63063 5699 ft 221 kts 60°
2026-05-04 07:54 14.34428 120.71439 5023 ft 136 kts 63°
2026-05-04 07:55 14.34859 120.72241 5076 ft 128 kts 63°
2026-05-04 07:55 14.35299 120.73065 5132 ft 133 kts 63°
2026-05-04 07:55 14.35755 120.73912 5191 ft 136 kts 63°
2026-05-04 07:55 14.36213 120.74762 5209 ft 136 kts 63°
2026-05-04 07:56 14.36673 120.75617 5175 ft 136 kts 63°
2026-05-04 07:56 14.37131 120.76468 5107 ft 134 kts 63°
2026-05-04 07:56 14.37582 120.77306 4988 ft 136 kts 63°
2026-05-04 07:56 14.38041 120.78158 4759 ft 135 kts 63°
2026-05-04 07:57 14.38491 120.78993 4519 ft 133 kts 62°
2026-05-04 07:57 14.38940 120.79830 4274 ft 135 kts 63°
2026-05-04 07:57 14.39394 120.80673 4039 ft 134 kts 63°
2026-05-04 07:57 14.39694 120.81230 3857 ft 134 kts 63°
2026-05-04 07:58 14.40143 120.82063 3516 ft 132 kts 63°
2026-05-04 07:58 14.40576 120.82867 3350 ft 124 kts 63°
2026-05-04 07:58 14.41150 120.83937 3278 ft 130 kts 63°
2026-05-04 07:58 14.41597 120.84765 3201 ft 132 kts 63°
2026-05-04 07:59 14.42047 120.85605 3073 ft 134 kts 63°
2026-05-04 07:59 14.42490 120.86426 2930 ft 131 kts 63°
2026-05-04 07:59 14.42928 120.87243 2777 ft 130 kts 64°
2026-05-04 07:59 14.43371 120.88066 2629 ft 134 kts 63°
2026-05-04 08:00 14.43819 120.88897 2466 ft 131 kts 62°
2026-05-04 08:00 14.44109 120.89438 2358 ft 128 kts 63°
2026-05-04 08:00 14.44547 120.90250 2189 ft 129 kts 63°
2026-05-04 08:02 14.47599 120.95926 1043 ft 132 kts 63°
2026-05-04 08:02 14.48045 120.96724 862 ft 126 kts 64°
2026-05-04 08:02 14.48477 120.97547 638 ft 132 kts 65°
2026-05-04 08:03 14.48916 120.98372 504 ft 131 kts 66°
2026-05-04 08:03 14.49346 120.99195 323 ft 126 kts 65°
2026-05-04 08:03 14.49763 120.99962 141 ft 127 kts 65°
2026-05-04 08:03 14.50211 121.00767 88 ft 130 kts 64°
2026-05-04 08:04 14.50621 121.01504 60 ft 102 kts 64°
2026-05-04 08:04 14.50845 121.01914 66 ft 37 kts 65°
2026-05-04 08:04 14.50957 121.02115 68 ft 25 kts 63°
2026-05-04 08:04 14.51001 121.02195 65 ft 15 kts 60°
2026-05-04 08:05 14.51089 121.02266 70 ft 10 kts 35°
2026-05-04 08:05 14.51150 121.02310 67 ft 11 kts 28°
2026-05-04 08:05 14.51190 121.02272 62 ft 12 kts 282°
2026-05-04 08:05 14.51153 121.02190 66 ft 16 kts 239°
2026-05-04 08:06 14.51085 121.02067 63 ft 15 kts 239°
2026-05-04 08:06 14.51054 121.02013 87 ft 4 kts 241°
2026-05-04 08:06 14.51026 121.01961 64 ft 11 kts 243°
2026-05-04 08:06 14.51063 121.01891 65 ft 15 kts 314°
2026-05-04 08:08 14.51539 121.01503 68 ft 0 kts 319°
2026-05-04 08:08 14.51563 121.01481 61 ft 10 kts 319°
2026-05-04 08:10 14.51663 121.01517 59 ft 0 kts 44°